[[{"header":{"parameterUnit":"m.s-1","parameterCategory":2,"la1":30.2991,"la2":30.254,"lo1":-89.0895,"lo2":-89.0444,"dy":0.0017,"dx":0.0017,"nx":28,"ny":28,"refTime":"2023-10-22T03:00:00:Z","depth":"0","parameterNumber":2,"parameterNumberName":"U-component_of_CURRENTS"},"data":[0,0,0,0,0,0,0,0,0,0,0,0,0,0,0,0,0,0,0,0,0,0,0,0,0,0,0,0,0,0,0,0,0,0,0,0,0,0,0,0,0,0,0,0,0,0,0,0,0,0,0,0,0,0,0,0,0,0,0.1511,0.151,0,0.1457,0.1457,0.1456,0.1431,0.1431,0.1431,0.1431,0.1438,0.1438,0.1439,0,0,0,0,0,0,0,0,0,0,0,0,0,0.1599,0.1598,0.1511,0.151,0.151,0.1457,0.1457,0.1456,0.1431,0.1431,0.1431,0.1431,0.1438,0.1438,0.1439,0,0,0,0,0,0,0,0,0,0,0,0,0,0.1555,0.1597,0.1511,0.1491,0.1489,0.1458,0.1457,0.1456,0.1431,0.1431,0.1431,0.1431,0.1438,0.1438,0.1439,0.1437,0,0,0.1439,0.1439,0,0,0,0,0,0,0,0,0.1557,0.1551,0.1495,0.1493,0.149,0.1451,0.149,0.1453,0.1431,0.1453,0.1431,0.1431,0.1449,0.1448,0.1436,0.1438,0.1438,0.1439,0.1439,0.1439,0.1439,0,0,0,0,0,0,0,0.156,0.1553,0.1489,0.1494,0.1491,0.1488,0.1481,0.1483,0.1451,0.1451,0.1449,0.1443,0.1448,0.1436,0.1436,0.1438,0.1439,0.1439,0.1439,0.1439,0.1555,0.1558,0,0,0,0,0,0,0.1567,0.1556,0.1491,0.1488,0.1525,0.1486,0.1479,0.1463,0.145,0.1448,0.1443,0.1443,0.1435,0.1436,0.1436,0.1541,0.1439,0.1439,0.144,0.1552,0.1556,0.1559,0,0,0,0,0,0,0.1569,0.1561,0.1493,0.1522,0.1513,0.1484,0.1467,0.1462,0.1458,0.1444,0.1443,0.1445,0.1436,0.1436,0.1463,0.1537,0.144,0.144,0.1549,0.1553,0.1557,0.1681,0,0,0,0,0,0,0.1571,0.1562,0.1558,0.1522,0.1512,0.1487,0.1467,0.1461,0.1454,0.1452,0.1445,0.1445,0.1436,0.1463,0.1463,0.1535,0.144,0.1545,0.1551,0.1556,0.1674,0.169,0.1703,0,0,0,0,0,0.1574,0.1569,0.1558,0.155,0.1505,0.1487,0.1482,0.1462,0.1454,0.1458,0.1464,0.1446,0.1499,0.1464,0.1464,0.1539,0.1542,0.1549,0.1555,0.1667,0.1686,0.1703,0,0,0,0,0,0,0.1621,0.1564,0.1552,0.1534,0.1518,0.1484,0.1484,0.1469,0.1472,0.1477,0.1464,0.1465,0.1537,0.1508,0.147,0.1591,0.1526,0.1533,0.1611,0.1629,0.1643,0.1758,0.144,0,0,0,0,0,0.1626,0.1603,0.1561,0.1557,0.1544,0.1517,0.1508,0.1495,0.1489,0.1489,0.1485,0.1504,0.1562,0.1567,0.1599,0.1634,0.1702,0.1689,0.1704,0.1716,0.1812,0.1989,0.2031,0.1581,0.1581,0.1581,0,0,0.165,0.1615,0.1606,0.1566,0.155,0.1559,0.1512,0.1506,0.1546,0.1492,0.1543,0.1559,0.1588,0.1658,0.1685,0.1638,0.1862,0.1725,0.1735,0.1826,0.2001,0.2045,0.2085,0.1585,0.1584,0.1584,0,0,0.1696,0.1649,0.1651,0.1631,0.1605,0.1592,0.1595,0.1564,0.1583,0.1608,0.1631,0.1719,0.1698,0.1804,0.1841,0.1959,0.1951,0.1915,0.2067,0.2235,0.2275,0.2312,0.2385,0.2427,0.1903,0.1903,0.1903,0,0.1741,0.1724,0.1658,0.1658,0.1664,0.1616,0.1647,0.166,0.1653,0.1717,0.164,0.1796,0.1814,0.2013,0.2058,0.201,0.2044,0.1988,0.2261,0.2299,0.2334,0.2401,0.2446,0.191,0.1909,0.1908,0.1908,0,0.1786,0.1778,0.178,0.1769,0.1766,0.178,0.1779,0.1813,0.181,0.1843,0.1999,0.2031,0.2147,0.215,0.2138,0.2402,0.2321,0.2273,0.2223,0.2388,0.2445,0.249,0.192,0.1917,0.1915,0.1914,0,0,0.1893,0.1829,0.1836,0.1846,0.1825,0.1833,0.192,0.201,0.2108,0.2125,0.2279,0.2421,0.245,0.2505,0.2511,0.2651,0.2904,0.2561,0.2566,0.2649,0.3202,0.3196,0.3242,0.2872,0.2882,0.2891,0.3114,0,0.1971,0.1989,0.1944,0.2003,0.2017,0.201,0.209,0.2169,0.2228,0.2351,0.2475,0.2596,0.2575,0.2621,0.2789,0.2876,0.3039,0.2845,0.3022,0.3028,0.3018,0.3305,0.3267,0.3472,0.3158,0.3166,0.3171,0,0.2052,0.2045,0.2098,0.2116,0.2126,0.2165,0.2305,0.2371,0.2547,0.2591,0.2771,0.2813,0.3075,0.298,0.3324,0.3174,0.3256,0.3302,0.331,0.3326,0.3114,0.3271,0.3565,0.3427,0.3241,0.3235,0.323,0,0.2158,0.217,0.2219,0.2217,0.2227,0.2294,0.2334,0.2475,0.2549,0.2771,0.2825,0.3107,0.3198,0.3415,0.3515,0.3434,0.3822,0.371,0.3799,0.379,0.3825,0.3806,0.4049,0.4035,0.4034,0.4034,0.4033,0,0.2252,0.2287,0.2269,0.2283,0.236,0.2367,0.2488,0.2575,0.2711,0.281,0.2965,0.3078,0.3312,0.35,0.3623,0.3867,0.3932,0.3955,0.3926,0.3851,0.3834,0.3761,0.3657,0.4042,0.404,0.4039,0.4037,0,0.2327,0.2324,0.2361,0.2384,0.2394,0.2454,0.2494,0.257,0.2709,0.2843,0.2905,0.3111,0.3375,0.3579,0.3891,0.3978,0.4128,0.4264,0.4115,0.4072,0.4043,0.3945,0.4074,0.398,0.4469,0.4471,0.4473,0,0.2346,0.2374,0.2401,0.2397,0.2395,0.2452,0.2463,0.2569,0.2629,0.2841,0.2894,0.3173,0.3343,0.3795,0.4069,0.4377,0.42,0.4466,0.4394,0.4171,0.404,0.3787,0.3677,0.4432,0.4433,0.4434,0.4435,0,0.235,0.2373,0.2376,0.2375,0.2384,0.2388,0.2424,0.2473,0.2596,0.2715,0.2884,0.3048,0.3491,0.3801,0.4192,0.4387,0.4279,0.4501,0.4368,0.4194,0.385,0.3694,0.4047,0.4446,0.4445,0.4444,0.4444,0.4443,0.2318,0.2321,0.2315,0.2309,0.2307,0.2296,0.2288,0.2353,0.2445,0.2604,0.2798,0.3034,0.3514,0.4101,0.4252,0.4512,0.4372,0.4467,0.4408,0.4198,0.4037,0.4392,0.4685,0.4686,0.4686,0.4686,0.4686,0,0.2224,0.2222,0.2219,0.2189,0.2135,0.2177,0.2205,0.2202,0.2272,0.2514,0.2681,0.3188,0.357,0.3979,0.444,0.4405,0.424,0.4308,0.3962,0.3891,0.4342,0.4269,0.4369,0.4369,0.4369,0.4369,0.4369,0.4369,0.2166,0.2123,0.2123,0.2002,0.1974,0.1898,0.1902,0.1963,0.2117,0.2382,0.2658,0.2925,0.3468,0.4042,0.4264,0.424,0.39,0.3782,0.3669,0.3982,0.3988,0.3995,0.3905,0.3927,0.3926,0.3111,0.3105,0.3101]},{"header":{"parameterUnit":"m.s-1","parameterCategory":2,"la1":30.2991,"la2":30.254,"lo1":-89.0895,"lo2":-89.0444,"dy":0.0017,"dx":0.0017,"nx":28,"ny":28,"refTime":"2023-10-22T03:00:00:Z","depth":"0","parameterNumber":3,"parameterNumberName":"V-component_of_CURRENTS"},"data":[0,0,0,0,0,0,0,0,0,0,0,0,0,0,0,0,0,0,0,0,0,0,0,0,0,0,0,0,0,0,0,0,0,0,0,0,0,0,0,0,0,0,0,0,0,0,0,0,0,0,0,0,0,0,0,0,0,0,0.0044,0.0043,0,0.0006,0.0006,0.0005,-0.0014,-0.0015,-0.0015,-0.0015,-0.001,-0.001,-0.0009,0,0,0,0,0,0,0,0,0,0,0,0,0,0.0138,0.0137,0.0044,0.0043,0.0043,0.0006,0.0006,0.0005,-0.0014,-0.0015,-0.0015,-0.0015,-0.001,-0.001,-0.0009,0,0,0,0,0,0,0,0,0,0,0,0,0,0.0101,0.0136,0.0044,0.0026,0.0024,0.0006,0.0006,0.0005,-0.0014,-0.0015,-0.0015,-0.0016,-0.001,-0.001,-0.0009,0.0004,0,0,-0.0007,-0.0007,0,0,0,0,0,0,0,0,0.0103,0.0098,0.0029,0.0027,0.0025,-0.0003,0.0041,0.0006,-0.0014,0.0003,-0.0015,-0.0016,-0.0005,-0.0005,-0.0008,0.0004,0.0004,-0.0007,-0.0007,-0.0006,-0.0006,0,0,0,0,0,0,0,0.0106,0.01,0.0032,0.0029,0.0026,0.0033,0.0027,0.0034,0.0005,0.0002,-0.0001,-0.0009,-0.0006,-0.0008,-0.0007,0.0004,-0.0007,-0.0007,-0.0006,-0.0006,0.0106,0.0109,0,0,0,0,0,0,0.0103,0.0102,0.0033,0.003,0.006,0.0031,0.0025,0.0009,0.0004,0.0002,-0.0009,-0.001,-0.0009,-0.0008,-0.0007,0.0091,-0.0006,-0.0006,-0.0006,0.0104,0.0107,0.011,0,0,0,0,0,0,0.0105,0.0097,0.0034,0.0064,0.0056,0.0029,0.0012,0.0008,0.0003,-0.0005,-0.0006,-0.0012,-0.0009,-0.0008,0.0017,0.0087,-0.0006,-0.0005,0.0101,0.0105,0.0108,0.0233,0,0,0,0,0,0,0.0108,0.0098,0.0093,0.0063,0.0054,0.0027,0.0012,0.0008,-0.0003,-0.0005,-0.0007,-0.0008,-0.001,0.0016,0.0017,0.0087,-0.0005,0.0097,0.0102,0.0107,0.0226,0.0241,0.0254,0,0,0,0,0,0.0111,0.0102,0.0093,0.0085,0.0045,0.0027,0.0024,0.0006,-0.0003,-0.0001,0.0009,-0.0008,0.0049,0.0018,0.0019,0.009,0.0095,0.0101,0.0107,0.022,0.0238,0.0254,0,0,0,0,0,0,0.0134,0.0098,0.0088,0.0066,0.005,0.0023,0.002,0.0007,0.0015,0.0016,0.0011,0.0013,0.007,0.0054,0.002,0.0138,0.0075,0.0081,0.0161,0.0178,0.0192,0.0267,-0.0004,0,0,0,0,0,0.0138,0.0126,0.0094,0.0078,0.007,0.0047,0.0038,0.0026,0.0022,0.0023,0.0031,0.0051,0.0096,0.0112,0.0134,0.0183,0.0162,0.0234,0.0248,0.026,0.0323,0.0339,0.036,0.0129,0.0129,0.0129,0,0,0.014,0.0121,0.0112,0.0084,0.0069,0.0094,0.0041,0.0029,0.0081,0.0025,0.0097,0.0094,0.0118,0.019,0.0214,0.0184,0.0302,0.0267,0.0277,0.0336,0.0347,0.037,0.039,0.0133,0.0132,0.0132,0,0,0.015,0.0123,0.0124,0.0126,0.0108,0.0112,0.011,0.0094,0.0117,0.0163,0.0165,0.0215,0.024,0.0306,0.0337,0.0441,0.0373,0.0425,0.0564,0.0576,0.0596,0.0613,0.0558,0.057,0.0434,0.0435,0.0435,0,0.0157,0.0165,0.0123,0.0143,0.0175,0.013,0.0177,0.0197,0.0201,0.0264,0.0203,0.0327,0.0325,0.0479,0.0519,0.0483,0.0437,0.0494,0.0596,0.0613,0.0628,0.0568,0.0579,0.0441,0.0441,0.044,0.0439,0,0.0181,0.0204,0.0207,0.024,0.0267,0.029,0.0321,0.0364,0.0381,0.0419,0.0538,0.0535,0.0624,0.0621,0.0606,0.0741,0.065,0.0604,0.0553,0.0659,0.0588,0.0597,0.0451,0.0449,0.0447,0.0445,0,0,0.0171,0.0217,0.0226,0.0291,0.0332,0.0367,0.0474,0.0582,0.0692,0.0696,0.0843,0.0914,0.0903,0.0941,0.0915,0.0932,0.097,0.0821,0.0818,0.0768,0.0936,0.089,0.0894,0.0917,0.0921,0.0924,0.082,0,0.0217,0.0294,0.0316,0.0445,0.0507,0.0555,0.0676,0.0775,0.0844,0.0966,0.1004,0.1104,0.1026,0.1057,0.1079,0.1016,0.101,0.1,0.0844,0.084,0.0788,0.0912,0.0908,0.0819,0.0828,0.083,0.0831,0,0.0259,0.0317,0.0433,0.0604,0.0638,0.0721,0.094,0.1035,0.1197,0.1249,0.1351,0.1349,0.144,0.131,0.1287,0.1268,0.1138,0.105,0.1042,0.0985,0.0816,0.0727,0.0835,0.0594,0.0845,0.0843,0.0842,0,0.0311,0.0429,0.0541,0.0588,0.0744,0.085,0.0955,0.1132,0.1257,0.1422,0.1495,0.1586,0.1599,0.152,0.1352,0.1315,0.1256,0.1172,0.1003,0.0992,0.0965,0.0949,0.0844,0.1147,0.1147,0.1147,0.1148,0,0.0384,0.0481,0.0575,0.0641,0.0827,0.092,0.1137,0.1253,0.1433,0.1591,0.1631,0.1725,0.1644,0.159,0.143,0.1262,0.1312,0.1084,0.1006,0.0999,0.0988,0.0756,0.0616,0.1143,0.1144,0.1145,0.1146,0,0.0435,0.0483,0.0622,0.0783,0.0848,0.0984,0.1215,0.1372,0.1509,0.1704,0.1751,0.1833,0.1786,0.1658,0.1506,0.1344,0.1056,0.1092,0.1063,0.0989,0.0649,0.0517,0.0404,0.0263,0.094,0.0939,0.0938,0,0.0469,0.0532,0.0697,0.0785,0.0861,0.1056,0.1202,0.1395,0.1548,0.1758,0.1847,0.1871,0.191,0.1688,0.1448,0.1205,0.0981,0.0983,0.0962,0.069,0.0483,0.0414,0.0297,0.0924,0.0923,0.0922,0.0922,0,0.0532,0.0569,0.0672,0.0838,0.0988,0.118,0.1385,0.1512,0.1731,0.1864,0.2008,0.2055,0.1893,0.1701,0.1381,0.1197,0.0829,0.0958,0.0711,0.0534,0.0422,0.0226,0.0864,0.0915,0.0915,0.0916,0.0916,0.0917,0.0556,0.0635,0.0744,0.0917,0.1081,0.1289,0.144,0.1624,0.1837,0.2054,0.21,0.22,0.1951,0.1569,0.1238,0.0718,0.0725,0.0547,0.042,0.0383,0.0251,0.0859,0.0806,0.0806,0.0806,0.0806,0.0806,0,0.0592,0.0683,0.0829,0.1031,0.1202,0.1296,0.1556,0.1694,0.1889,0.2104,0.2231,0.2274,0.1812,0.1389,0.072,0.0265,0.0104,0.0021,-0.0086,-0.0175,0.0397,0.04,0.0217,0.0218,0.0218,0.0218,0.0218,0.0219,0.0614,0.0738,0.0825,0.109,0.1237,0.1466,0.1606,0.178,0.1967,0.2232,0.2399,0.2545,0.2372,0.0999,0.0001,-0.0245,-0.0603,-0.0637,-0.0846,-0.0481,-0.0441,-0.0404,-0.0432,-0.0787,-0.0788,-0.1354,-0.136,-0.1364]}],[{"header":{"parameterUnit":"m.s-1","parameterCategory":2,"la1":30.2991,"la2":30.254,"lo1":-89.0895,"lo2":-89.0444,"dy":0.0017,"dx":0.0017,"nx":28,"ny":28,"refTime":"2023-10-22T03:00:00:Z","depth":"2","parameterNumber":2,"parameterNumberName":"U-component_of_CURRENTS"},"data":[0,0,0,0,0,0,0,0,0,0,0,0,0,0,0,0,0,0,0,0,0,0,0,0,0,0,0,0,0,0,0,0,0,0,0,0,0,0,0,0,0,0,0,0,0,0,0,0,0,0,0,0,0,0,0,0,0,0,0.2213,0.2214,0,0.2284,0.2285,0.2285,0.2317,0.2318,0.2318,0.2318,0.2346,0.2346,0.2347,0,0,0,0,0,0,0,0,0,0,0,0,0,0.2119,0.212,0.2213,0.2214,0.2215,0.2284,0.2285,0.2285,0.2317,0.2318,0.2318,0.2318,0.2345,0.2346,0.2347,0,0,0,0,0,0,0,0,0,0,0,0,0,0.2169,0.212,0.2213,0.2242,0.2245,0.2284,0.2285,0.2286,0.2317,0.2318,0.2318,0.2318,0.2345,0.2346,0.2347,0.2346,0,0,0.2349,0.235,0,0,0,0,0,0,0,0,0.2166,0.2172,0.2236,0.224,0.2244,0.2295,0.2262,0.2305,0.2317,0.2287,0.2318,0.2318,0.2326,0.2329,0.2338,0.2347,0.2348,0.2349,0.235,0.235,0.235,0,0,0,0,0,0,0,0.2162,0.2169,0.2238,0.2238,0.2242,0.2256,0.2263,0.227,0.2301,0.229,0.2293,0.2305,0.2328,0.2337,0.2339,0.2349,0.2349,0.235,0.2351,0.2351,0.2396,0.2397,0,0,0,0,0,0,0.2159,0.2166,0.2236,0.2241,0.2208,0.2258,0.2265,0.2276,0.2302,0.2307,0.2305,0.2307,0.2335,0.2338,0.234,0.2371,0.235,0.2351,0.2351,0.2395,0.2396,0.2397,0,0,0,0,0,0,0.2156,0.2164,0.2233,0.2207,0.2217,0.2259,0.2271,0.2277,0.2297,0.2315,0.2319,0.232,0.2336,0.2338,0.2358,0.2371,0.2351,0.2352,0.2394,0.2396,0.2397,0.2415,0,0,0,0,0,0,0.2153,0.2163,0.217,0.2207,0.2219,0.226,0.2271,0.2278,0.2305,0.2308,0.2328,0.2331,0.2336,0.2356,0.2358,0.2372,0.2353,0.2394,0.2395,0.2396,0.2413,0.2416,0.2419,0,0,0,0,0,0.215,0.2151,0.217,0.2179,0.2227,0.2261,0.2268,0.2296,0.2306,0.2315,0.2332,0.2331,0.2366,0.2358,0.236,0.2374,0.2393,0.2395,0.2396,0.2412,0.2416,0.2419,0,0,0,0,0,0,0.2107,0.2157,0.2177,0.2193,0.223,0.2267,0.2279,0.23,0.2322,0.2326,0.2338,0.2342,0.2365,0.2366,0.2357,0.2392,0.238,0.2382,0.2391,0.2395,0.2397,0.2426,0.2353,0,0,0,0,0,0.2104,0.2123,0.2171,0.2184,0.2204,0.2244,0.2263,0.2286,0.2311,0.2322,0.2339,0.2355,0.2372,0.238,0.2393,0.2409,0.2449,0.2421,0.2424,0.2426,0.2451,0.2515,0.2526,0.2402,0.2402,0.2402,0,0,0.209,0.2121,0.2131,0.2178,0.2208,0.2237,0.2255,0.2287,0.2313,0.232,0.2353,0.2366,0.2379,0.2401,0.2411,0.2405,0.2483,0.2428,0.243,0.2455,0.2518,0.253,0.2541,0.2403,0.2403,0.2403,0,0,0.2072,0.2102,0.2116,0.215,0.2203,0.2231,0.2243,0.2291,0.2315,0.2348,0.2362,0.2391,0.2408,0.243,0.244,0.2467,0.2496,0.2462,0.25,0.256,0.2572,0.2582,0.2655,0.2672,0.2463,0.2463,0.2463,0,0.2051,0.2086,0.2123,0.2151,0.2184,0.2229,0.2257,0.2287,0.2335,0.237,0.2361,0.2425,0.2428,0.2475,0.2485,0.2475,0.252,0.2483,0.2566,0.2577,0.2587,0.2659,0.2678,0.2464,0.2464,0.2464,0.2464,0,0.2051,0.2086,0.2097,0.2152,0.2186,0.2218,0.2272,0.2312,0.2347,0.2388,0.2448,0.246,0.2507,0.2503,0.2502,0.2574,0.2587,0.2562,0.2559,0.2601,0.2674,0.2693,0.2465,0.2465,0.2465,0.2464,0,0,0.1987,0.2079,0.2085,0.2129,0.2197,0.2229,0.228,0.2354,0.2405,0.2448,0.2514,0.2545,0.2572,0.2587,0.2588,0.2637,0.274,0.2635,0.2638,0.2713,0.2897,0.2728,0.2732,0.2731,0.2734,0.2737,0.2921,0,0.198,0.2038,0.2085,0.2146,0.2188,0.2256,0.2305,0.2378,0.2434,0.2505,0.2553,0.2603,0.2596,0.2616,0.267,0.2724,0.279,0.2694,0.2842,0.2848,0.2695,0.2748,0.2521,0.265,0.294,0.2943,0.2945,0,0.1968,0.2019,0.2077,0.2181,0.2205,0.2244,0.2353,0.2402,0.251,0.2558,0.2632,0.2665,0.2757,0.2722,0.2878,0.282,0.2874,0.291,0.2917,0.2769,0.2712,0.2653,0.2673,0.2977,0.2974,0.2972,0.297,0,0.1927,0.2016,0.207,0.2102,0.2214,0.2262,0.2321,0.2425,0.2479,0.2595,0.265,0.2755,0.2816,0.2902,0.2991,0.2946,0.316,0.3097,0.3007,0.2998,0.2839,0.2807,0.3217,0.3217,0.3216,0.3216,0.3215,0,0.1909,0.1956,0.2061,0.2095,0.2164,0.2249,0.2326,0.2404,0.2508,0.2608,0.2673,0.2768,0.2866,0.2987,0.3047,0.31,0.3217,0.3039,0.3033,0.2834,0.2802,0.3103,0.3088,0.3223,0.3221,0.322,0.3219,0,0.1865,0.1929,0.1999,0.2115,0.2148,0.2199,0.2311,0.2384,0.2482,0.2612,0.2653,0.2809,0.2986,0.3081,0.3243,0.3154,0.3225,0.3218,0.2979,0.2936,0.301,0.2994,0.3113,0.3109,0.3105,0.3102,0.3099,0,0.1854,0.1885,0.1992,0.2037,0.2093,0.2175,0.2247,0.2355,0.2446,0.2658,0.2739,0.2918,0.3024,0.3161,0.3119,0.3164,0.327,0.29,0.2727,0.3018,0.3001,0.299,0.2979,0.2559,0.2552,0.2546,0.2542,0,0.1835,0.1869,0.1926,0.201,0.2087,0.2156,0.2273,0.2316,0.2496,0.2588,0.2757,0.2832,0.2975,0.2877,0.2879,0.2868,0.285,0.2775,0.3202,0.2572,0.2495,0.2478,0.2486,0.2492,0.2497,0.25,0.2503,0.2505,0.1816,0.184,0.1914,0.1987,0.2069,0.2136,0.2161,0.229,0.2369,0.2458,0.2604,0.2599,0.2637,0.2478,0.2468,0.2433,0.2585,0.2417,0.2436,0.246,0.2314,0.2229,0.2153,0.2156,0.2159,0.2161,0.2163,0,0.1791,0.1833,0.1899,0.1969,0.2026,0.2094,0.219,0.2178,0.2236,0.2293,0.2304,0.2037,0.1971,0.2103,0.1946,0.1871,0.1876,0.1819,0.1827,0.1876,0.192,0.1748,0.1437,0.1435,0.1433,0.1431,0,0,0.1782,0.1818,0.1846,0.1906,0.197,0.2006,0.2034,0.2003,0.2008,0.1857,0.1779,0.1772,0.1943,0.1617,0.1602,0.1522,0.1694,0.1465,0.2045,0.2103,0.2145,0.2256,0.2043,0,0,0,0,0]},{"header":{"parameterUnit":"m.s-1","parameterCategory":2,"la1":30.2991,"la2":30.254,"lo1":-89.0895,"lo2":-89.0444,"dy":0.0017,"dx":0.0017,"nx":28,"ny":28,"refTime":"2023-10-22T03:00:00:Z","depth":"2","parameterNumber":3,"parameterNumberName":"V-component_of_CURRENTS"},"data":[0,0,0,0,0,0,0,0,0,0,0,0,0,0,0,0,0,0,0,0,0,0,0,0,0,0,0,0,0,0,0,0,0,0,0,0,0,0,0,0,0,0,0,0,0,0,0,0,0,0,0,0,0,0,0,0,0,0,-0.0591,-0.0592,0,-0.0664,-0.0665,-0.0666,-0.0703,-0.0703,-0.0704,-0.0704,-0.0768,-0.0769,-0.0771,0,0,0,0,0,0,0,0,0,0,0,0,0,-0.0487,-0.0488,-0.0591,-0.0592,-0.0593,-0.0664,-0.0665,-0.0666,-0.0703,-0.0703,-0.0704,-0.0704,-0.0767,-0.0769,-0.0771,0,0,0,0,0,0,0,0,0,0,0,0,0,-0.0542,-0.0489,-0.0591,-0.0622,-0.0625,-0.0664,-0.0665,-0.0666,-0.0703,-0.0703,-0.0704,-0.0704,-0.0767,-0.0769,-0.0771,-0.078,0,0,-0.0778,-0.0779,0,0,0,0,0,0,0,0,-0.0539,-0.0545,-0.0616,-0.062,-0.0624,-0.0676,-0.0652,-0.0704,-0.0703,-0.0672,-0.0704,-0.0704,-0.0737,-0.0742,-0.0753,-0.0783,-0.0785,-0.0778,-0.078,-0.0781,-0.0781,0,0,0,0,0,0,0,-0.0535,-0.0542,-0.0619,-0.0617,-0.0622,-0.0633,-0.0641,-0.0662,-0.0701,-0.0675,-0.0678,-0.0689,-0.0739,-0.0751,-0.0755,-0.0786,-0.0778,-0.078,-0.0782,-0.0783,-0.0826,-0.0826,0,0,0,0,0,0,-0.0529,-0.0539,-0.0616,-0.0621,-0.0583,-0.0635,-0.0643,-0.0658,-0.0701,-0.0708,-0.0688,-0.069,-0.0746,-0.0752,-0.0757,-0.0761,-0.0781,-0.0783,-0.0784,-0.0827,-0.0826,-0.0826,0,0,0,0,0,0,-0.0526,-0.0535,-0.0613,-0.0582,-0.0593,-0.0636,-0.0652,-0.0659,-0.0674,-0.0711,-0.0718,-0.0696,-0.0747,-0.0754,-0.078,-0.0764,-0.0784,-0.0786,-0.0827,-0.0827,-0.0826,-0.0774,0,0,0,0,0,0,-0.0523,-0.0534,-0.0539,-0.0582,-0.0595,-0.0634,-0.0652,-0.0661,-0.0681,-0.0684,-0.072,-0.0727,-0.0748,-0.0776,-0.0782,-0.0767,-0.0788,-0.0827,-0.0827,-0.0826,-0.0776,-0.0772,-0.0768,0,0,0,0,0,-0.0519,-0.0524,-0.0538,-0.0548,-0.0602,-0.0634,-0.0641,-0.0671,-0.0681,-0.0685,-0.0713,-0.0726,-0.0777,-0.0778,-0.0785,-0.077,-0.0827,-0.0827,-0.0826,-0.0778,-0.0773,-0.0768,0,0,0,0,0,0,-0.0478,-0.053,-0.0546,-0.0566,-0.0597,-0.0641,-0.0648,-0.0669,-0.0695,-0.0696,-0.073,-0.0738,-0.0755,-0.0772,-0.0772,-0.0783,-0.0802,-0.0802,-0.0762,-0.0758,-0.0754,-0.0728,-0.079,0,0,0,0,0,-0.0472,-0.0491,-0.0538,-0.0552,-0.0566,-0.0606,-0.0622,-0.0643,-0.0674,-0.0686,-0.0713,-0.0737,-0.0758,-0.0766,-0.0791,-0.0797,-0.0798,-0.079,-0.0787,-0.0783,-0.0767,-0.0766,-0.076,-0.0825,-0.0825,-0.0825,0,0,-0.0459,-0.0491,-0.0501,-0.0545,-0.057,-0.0581,-0.0616,-0.0637,-0.0642,-0.0688,-0.07,-0.0731,-0.076,-0.0769,-0.0777,-0.078,-0.0765,-0.0783,-0.0779,-0.0765,-0.0765,-0.0759,-0.0753,-0.0824,-0.0824,-0.0824,0,0,-0.0439,-0.0471,-0.0477,-0.05,-0.0538,-0.0562,-0.0567,-0.061,-0.0624,-0.0647,-0.0676,-0.0696,-0.0732,-0.0743,-0.0754,-0.0743,-0.0752,-0.0752,-0.0703,-0.0703,-0.0697,-0.0692,-0.0679,-0.0673,-0.0741,-0.0741,-0.0741,0,-0.0417,-0.0437,-0.0481,-0.0489,-0.05,-0.0549,-0.0547,-0.0569,-0.0614,-0.0611,-0.0643,-0.068,-0.0715,-0.0706,-0.0709,-0.0732,-0.073,-0.0717,-0.0696,-0.0691,-0.0686,-0.0675,-0.0669,-0.0739,-0.0739,-0.0739,-0.074,0,-0.0402,-0.0414,-0.0417,-0.0443,-0.0459,-0.0467,-0.0503,-0.0513,-0.0539,-0.0557,-0.0568,-0.0618,-0.0633,-0.065,-0.0681,-0.0661,-0.0669,-0.0696,-0.0702,-0.0676,-0.0666,-0.0661,-0.0735,-0.0736,-0.0737,-0.0737,0,0,-0.0354,-0.0397,-0.0395,-0.0389,-0.0434,-0.0435,-0.0443,-0.0451,-0.0421,-0.0481,-0.0452,-0.0512,-0.0535,-0.0549,-0.0587,-0.0591,-0.0573,-0.0626,-0.0628,-0.0604,-0.0557,-0.0592,-0.059,-0.0596,-0.0595,-0.0594,-0.0559,0,-0.0322,-0.0319,-0.0355,-0.0333,-0.0328,-0.0366,-0.0354,-0.0365,-0.0379,-0.0362,-0.0416,-0.0414,-0.0497,-0.0496,-0.0517,-0.0556,-0.0558,-0.0579,-0.0593,-0.0593,-0.062,-0.0585,-0.0573,-0.0543,-0.0554,-0.0553,-0.0553,0,-0.0285,-0.0289,-0.0272,-0.0259,-0.0256,-0.025,-0.0218,-0.0217,-0.0215,-0.0225,-0.0245,-0.0283,-0.0308,-0.0382,-0.0432,-0.044,-0.0492,-0.0529,-0.0529,-0.0574,-0.0619,-0.0574,-0.0534,-0.0544,-0.0545,-0.0546,-0.0546,0,-0.0211,-0.0217,-0.0197,-0.0199,-0.0202,-0.0184,-0.0179,-0.0168,-0.0137,-0.0134,-0.0102,-0.0156,-0.0163,-0.0243,-0.0339,-0.0381,-0.0377,-0.0446,-0.0522,-0.0524,-0.0522,-0.0526,-0.047,-0.047,-0.047,-0.047,-0.047,0,-0.0153,-0.0126,-0.0156,-0.0139,-0.0079,-0.0111,-0.0037,-0.0035,-0.0012,0.0066,-0.0024,0.003,-0.0128,-0.0154,-0.027,-0.0364,-0.0326,-0.0496,-0.0514,-0.0504,-0.0508,-0.0522,-0.0528,-0.0469,-0.0469,-0.0469,-0.0469,0,-0.0061,-0.0093,-0.0053,-0.0052,-0.0044,0.0004,0.0044,0.0111,0.011,0.0208,0.0212,0.0176,0.0145,0.001,-0.0094,-0.0258,-0.0353,-0.0393,-0.0368,-0.0386,-0.0522,-0.0527,-0.0492,-0.0493,-0.0494,-0.0494,-0.0495,0,-0.0013,0.0009,0.0026,0.0063,0.0068,0.012,0.0174,0.0171,0.0247,0.0322,0.0393,0.0376,0.0401,0.0219,-0.0044,-0.0239,-0.0273,-0.0396,-0.05,-0.0501,-0.0523,-0.0526,-0.0529,-0.0466,-0.0467,-0.0467,-0.0467,0,0.0093,0.0092,0.0124,0.0189,0.0242,0.0313,0.0385,0.0452,0.0492,0.0577,0.07,0.0719,0.0534,0.0313,-0.0003,-0.015,-0.0379,-0.0411,-0.038,-0.0479,-0.0479,-0.05,-0.0503,-0.0469,-0.0469,-0.0469,-0.0469,-0.0468,0.0182,0.0228,0.0259,0.0332,0.0398,0.0504,0.0583,0.069,0.0815,0.0938,0.091,0.0912,0.0618,0.0202,-0.0037,-0.0335,-0.0361,-0.051,-0.0508,-0.0506,-0.0526,-0.053,-0.0531,-0.0531,-0.0531,-0.0531,-0.0531,0,0.0289,0.0326,0.0403,0.0481,0.0581,0.0583,0.0729,0.0838,0.1022,0.1082,0.1145,0.0845,0.057,0.028,-0.0182,-0.0473,-0.0483,-0.0533,-0.0503,-0.05,-0.0499,-0.0517,-0.0519,-0.052,-0.052,-0.052,0,0,0.0345,0.043,0.0458,0.0621,0.0683,0.0818,0.0905,0.1093,0.1178,0.1248,0.118,0.1028,0.0638,0.03,-0.005,-0.0277,-0.0311,-0.0308,-0.0298,-0.0218,-0.0212,-0.0478,-0.0503,0,0,0,0,0]}],[{"header":{"parameterUnit":"m.s-1","parameterCategory":2,"la1":30.2991,"la2":30.254,"lo1":-89.0895,"lo2":-89.0444,"dy":0.0017,"dx":0.0017,"nx":28,"ny":28,"refTime":"2023-10-22T03:00:00:Z","depth":"4","parameterNumber":2,"parameterNumberName":"U-component_of_CURRENTS"},"data":[0,0,0,0,0,0,0,0,0,0,0,0,0,0,0,0,0,0,0,0,0,0,0,0,0,0,0,0,0,0,0,0,0,0,0,0,0,0,0,0,0,0,0,0,0,0,0,0,0,0,0,0,0,0,0,0,0,0,0.0701,0.0702,0,0.077,0.0771,0.0772,0.0889,0.0891,0.0893,0.0894,0.0933,0.0932,0.0931,0,0,0,0,0,0,0,0,0,0,0,0,0,0.0644,0.0645,0.0701,0.0702,0.0702,0.077,0.0771,0.0773,0.0888,0.0891,0.0893,0.0895,0.0933,0.0932,0.0931,0,0,0,0,0,0,0,0,0,0,0,0,0,0.0689,0.0645,0.0701,0.0767,0.0773,0.077,0.0772,0.0773,0.0888,0.0891,0.0894,0.0897,0.0933,0.0932,0.0931,0.0864,0,0,0.0927,0.0927,0,0,0,0,0,0,0,0,0.0686,0.0691,0.0756,0.0762,0.077,0.0822,0.0766,0.0801,0.0887,0.0846,0.0895,0.0898,0.0889,0.0892,0.0902,0.0866,0.0867,0.0927,0.0926,0.0926,0.0925,0,0,0,0,0,0,0,0.0683,0.0688,0.0731,0.0757,0.0765,0.0784,0.0795,0.0773,0.0851,0.085,0.0858,0.0862,0.0894,0.0903,0.0903,0.0868,0.0927,0.0926,0.0925,0.0925,0.1065,0.1069,0,0,0,0,0,0,0.0668,0.0685,0.0728,0.0732,0.0732,0.0783,0.0794,0.0804,0.0853,0.0862,0.0859,0.0867,0.0903,0.0905,0.0905,0.0987,0.0926,0.0925,0.0924,0.1061,0.1066,0.1071,0,0,0,0,0,0,0.0667,0.0671,0.0725,0.0709,0.0717,0.0781,0.0791,0.0804,0.0853,0.0859,0.087,0.09,0.0906,0.0907,0.0902,0.0983,0.0924,0.0923,0.1055,0.1062,0.1069,0.1048,0,0,0,0,0,0,0.0665,0.0671,0.0695,0.0708,0.0717,0.0752,0.0788,0.0803,0.0847,0.0859,0.0896,0.0901,0.0908,0.0904,0.0901,0.098,0.0922,0.105,0.1058,0.1066,0.1043,0.1053,0.1061,0,0,0,0,0,0.0663,0.0675,0.0696,0.0702,0.0742,0.0753,0.0761,0.0816,0.0846,0.0871,0.0881,0.0902,0.0961,0.0901,0.0898,0.098,0.1046,0.1056,0.1066,0.1038,0.1051,0.1061,0,0,0,0,0,0,0.0664,0.0688,0.0712,0.0733,0.0756,0.0773,0.0796,0.0825,0.0853,0.0869,0.0881,0.0884,0.0932,0.0957,0.0893,0.1064,0.1039,0.1048,0.102,0.1031,0.1041,0.1024,0.0921,0,0,0,0,0,0.0671,0.0682,0.0711,0.0722,0.0738,0.077,0.0789,0.0823,0.0836,0.0856,0.0888,0.0937,0.0965,0.0992,0.1018,0.1053,0.1044,0.114,0.1149,0.1156,0.1152,0.1156,0.1161,0.1104,0.1104,0.1104,0,0,0.0658,0.0681,0.0682,0.0723,0.0742,0.0775,0.0791,0.082,0.086,0.0846,0.0918,0.094,0.0978,0.1038,0.1072,0.1069,0.1178,0.1169,0.1173,0.1165,0.1166,0.117,0.1174,0.1111,0.1109,0.1108,0,0,0.0641,0.0675,0.0688,0.0723,0.0767,0.0784,0.0799,0.0846,0.089,0.0929,0.0953,0.0997,0.1066,0.1101,0.1125,0.1201,0.1209,0.1278,0.1312,0.1316,0.1318,0.1319,0.1324,0.1326,0.1301,0.1301,0.1301,0,0.0648,0.067,0.0691,0.0736,0.0768,0.0793,0.083,0.0863,0.0912,0.0941,0.097,0.1078,0.1097,0.1152,0.1203,0.1215,0.122,0.1243,0.1317,0.1319,0.132,0.1324,0.1327,0.1301,0.1301,0.1301,0.1301,0,0.0647,0.0691,0.0699,0.0765,0.08,0.0826,0.0877,0.0924,0.098,0.1024,0.1106,0.1126,0.1206,0.125,0.1237,0.1305,0.1305,0.1297,0.1258,0.1323,0.1326,0.1329,0.1302,0.1302,0.1301,0.1301,0,0,0.0614,0.0686,0.0701,0.0738,0.0826,0.084,0.0908,0.0966,0.102,0.1097,0.1167,0.1233,0.1272,0.1304,0.1327,0.1335,0.1346,0.1335,0.1335,0.1287,0.136,0.1297,0.1294,0.1343,0.1344,0.1344,0.1357,0,0.0622,0.0687,0.073,0.0791,0.083,0.0889,0.095,0.1013,0.1084,0.1159,0.1202,0.1277,0.129,0.1337,0.1349,0.1351,0.1353,0.1344,0.1352,0.1353,0.1243,0.1294,0.1346,0.1358,0.1359,0.1359,0.1359,0,0.0629,0.0675,0.0737,0.0814,0.0838,0.0895,0.0991,0.1035,0.1135,0.1201,0.1284,0.1332,0.1387,0.1374,0.1406,0.1405,0.1387,0.137,0.137,0.1314,0.1294,0.1288,0.1363,0.1363,0.1363,0.1363,0.1362,0,0.0591,0.068,0.0719,0.0757,0.0854,0.0908,0.0955,0.1067,0.1126,0.1225,0.1308,0.1372,0.143,0.1421,0.1437,0.1426,0.1437,0.1418,0.1334,0.133,0.1383,0.1381,0.14,0.14,0.14,0.14,0.14,0,0.0587,0.0625,0.0715,0.0749,0.0817,0.089,0.0982,0.1045,0.1164,0.1224,0.1328,0.1397,0.1444,0.1476,0.145,0.1418,0.1461,0.1338,0.1328,0.1383,0.1381,0.1384,0.1382,0.14,0.14,0.14,0.14,0,0.0544,0.0599,0.0645,0.0754,0.0805,0.0845,0.0998,0.1053,0.118,0.1264,0.1302,0.1438,0.1471,0.1502,0.1486,0.1445,0.1401,0.1364,0.1436,0.143,0.1286,0.1284,0.1276,0.1274,0.1272,0.127,0.1269,0,0.0521,0.0544,0.0642,0.0683,0.0748,0.0842,0.0913,0.1045,0.1098,0.1268,0.1283,0.1395,0.1456,0.1417,0.1433,0.1391,0.1357,0.134,0.1292,0.1282,0.1273,0.1274,0.1274,0.1266,0.1266,0.1265,0.1265,0,0.0474,0.0507,0.0537,0.0633,0.0711,0.0788,0.0893,0.0943,0.1055,0.119,0.1259,0.1308,0.1346,0.1354,0.1346,0.1301,0.1361,0.132,0.1323,0.1278,0.127,0.1263,0.1266,0.1258,0.1259,0.126,0.126,0,0.0419,0.043,0.0479,0.0558,0.0636,0.0705,0.0782,0.086,0.0938,0.1115,0.1119,0.123,0.1317,0.1306,0.1286,0.1264,0.1228,0.1178,0.1187,0.1194,0.1162,0.1139,0.1077,0,0,0,0,0,0.0368,0.0384,0.0425,0.0491,0.0559,0.0628,0.0744,0.0815,0.0936,0.0949,0.1044,0.1068,0.1112,0.1169,0.1123,0.1219,0.1211,0.116,0.1152,0.1223,0.1231,0.1199,0,0,0,0,0,0,0.0333,0.0354,0.0383,0.0412,0.046,0.0539,0.0611,0.0705,0.0726,0.0858,0.0883,0.0995,0.1038,0.1113,0.1098,0.111,0.1081,0.1224,0.1221,0.1219,0.1226,0.1232,0.1202,0,0,0,0,0]},{"header":{"parameterUnit":"m.s-1","parameterCategory":2,"la1":30.2991,"la2":30.254,"lo1":-89.0895,"lo2":-89.0444,"dy":0.0017,"dx":0.0017,"nx":28,"ny":28,"refTime":"2023-10-22T03:00:00:Z","depth":"4","parameterNumber":3,"parameterNumberName":"V-component_of_CURRENTS"},"data":[0,0,0,0,0,0,0,0,0,0,0,0,0,0,0,0,0,0,0,0,0,0,0,0,0,0,0,0,0,0,0,0,0,0,0,0,0,0,0,0,0,0,0,0,0,0,0,0,0,0,0,0,0,0,0,0,0,0,0.0216,0.0216,0,0.0148,0.0147,0.0146,0.0081,0.0081,0.008,0.008,0.0009,0.0007,0.0006,0,0,0,0,0,0,0,0,0,0,0,0,0,0.0182,0.0183,0.0216,0.0216,0.0215,0.0149,0.0147,0.0146,0.0081,0.0081,0.008,0.008,0.001,0.0008,0.0006,0,0,0,0,0,0,0,0,0,0,0,0,0,0.0159,0.0183,0.0216,0.0179,0.0176,0.0149,0.0147,0.0145,0.0081,0.0081,0.008,0.008,0.001,0.0008,0.0005,0.0,0,0,-0.0002,-0.0003,0,0,0,0,0,0,0,0,0.016,0.0159,0.0185,0.0182,0.0178,0.0128,0.0109,0.0099,0.0081,0.0111,0.008,0.008,0.0052,0.0046,0.0027,-0.0003,-0.0006,-0.0002,-0.0004,-0.0005,-0.0005,0,0,0,0,0,0,0,0.0162,0.0161,0.0184,0.0185,0.018,0.013,0.0126,0.0106,0.0081,0.0108,0.0105,0.0107,0.0049,0.0029,0.0025,-0.0007,-0.0002,-0.0004,-0.0006,-0.0007,-0.009,-0.009,0,0,0,0,0,0,0.0188,0.0164,0.0186,0.0182,0.0174,0.0131,0.0127,0.014,0.0081,0.0073,0.0107,0.0104,0.0034,0.0028,0.0022,0.0007,-0.0005,-0.0007,-0.0008,-0.0089,-0.009,-0.0091,0,0,0,0,0,0,0.0188,0.0191,0.0189,0.0174,0.0171,0.0134,0.0147,0.0139,0.0117,0.0081,0.0072,0.0095,0.0033,0.0026,0.0022,0.0004,-0.0008,-0.001,-0.0088,-0.0089,-0.009,-0.0019,0,0,0,0,0,0,0.0187,0.0191,0.0201,0.0177,0.0174,0.0176,0.0148,0.0138,0.0122,0.0116,0.0068,0.0061,0.0032,0.0026,0.002,0.0001,-0.0012,-0.0087,-0.0089,-0.009,-0.002,-0.0018,-0.0015,0,0,0,0,0,0.0186,0.0209,0.0202,0.0204,0.0191,0.0177,0.0169,0.0136,0.0122,0.0113,0.0097,0.0062,0.001,0.0026,0.0018,-0.0003,-0.0086,-0.0088,-0.009,-0.0022,-0.0018,-0.0015,0,0,0,0,0,0,0.0196,0.0204,0.0196,0.0219,0.02,0.0168,0.0163,0.0141,0.0117,0.0118,0.0078,0.007,0.0053,0.0018,0.0035,-0.0036,-0.0055,-0.0058,-0.0001,0.0002,0.0005,0.0002,-0.0014,0,0,0,0,0,0.0207,0.0227,0.0215,0.0231,0.0228,0.0195,0.0183,0.0164,0.0146,0.0133,0.01,0.0064,0.0038,0.0019,-0.001,-0.0031,-0.0072,-0.0062,-0.0059,-0.0056,-0.0066,-0.0125,-0.0128,-0.0096,-0.0096,-0.0096,0,0,0.0221,0.0224,0.0237,0.0235,0.0219,0.0211,0.0185,0.0179,0.0165,0.0132,0.0107,0.0083,0.0037,0.0012,-0.0003,-0.0018,-0.0084,-0.0058,-0.0055,-0.0068,-0.0127,-0.013,-0.0132,-0.0098,-0.0097,-0.0097,0,0,0.0248,0.0257,0.0276,0.0263,0.025,0.023,0.0231,0.0201,0.018,0.0166,0.0135,0.0107,0.0061,0.0022,-0.0002,-0.0005,-0.006,-0.0029,-0.0023,-0.0079,-0.0081,-0.0084,-0.0122,-0.0128,-0.0037,-0.0037,-0.0037,0,0.0257,0.0279,0.0275,0.0276,0.0267,0.0242,0.0241,0.0219,0.0188,0.0173,0.0166,0.0088,0.006,0.0016,0.0014,-0.0,-0.0033,-0.0022,-0.0073,-0.0077,-0.0081,-0.0119,-0.0128,-0.0034,-0.0034,-0.0034,-0.0035,0,0.0286,0.0298,0.0307,0.0302,0.029,0.029,0.0265,0.0247,0.0225,0.0195,0.0155,0.0117,0.0063,0.0044,0.0035,-0.002,-0.0032,-0.005,-0.0072,-0.008,-0.0119,-0.0129,-0.0029,-0.003,-0.0031,-0.0032,0,0,0.0317,0.0327,0.0328,0.0326,0.0304,0.0298,0.0283,0.0255,0.024,0.0198,0.0162,0.0118,0.0088,0.0057,0.0025,-0.0024,-0.0064,-0.0045,-0.0049,-0.0067,-0.0175,-0.0161,-0.0171,-0.0086,-0.0088,-0.0089,-0.0184,0,0.0333,0.0352,0.0346,0.0348,0.035,0.0321,0.0307,0.0279,0.0246,0.0206,0.0151,0.0112,0.0094,0.0072,0.0022,-0.0046,-0.0091,-0.0037,-0.0181,-0.0185,-0.0159,-0.0183,-0.0095,-0.0191,-0.0194,-0.0195,-0.0197,0,0.0349,0.0361,0.0377,0.037,0.0368,0.0367,0.0335,0.0318,0.0261,0.0234,0.0178,0.0132,0.0058,0.0045,-0.0083,-0.0045,-0.0105,-0.0157,-0.0162,-0.0186,-0.019,-0.0192,-0.0216,-0.0214,-0.0213,-0.0211,-0.021,0,0.0362,0.0373,0.039,0.0387,0.038,0.0381,0.0373,0.033,0.0317,0.0249,0.0226,0.0129,0.0081,-0.0017,-0.0117,-0.0104,-0.0258,-0.0259,-0.0305,-0.0304,-0.0317,-0.0313,-0.0353,-0.0353,-0.0353,-0.0353,-0.0353,0,0.0368,0.0379,0.0406,0.0415,0.0427,0.0411,0.0413,0.0384,0.0348,0.0327,0.0248,0.0203,0.0064,-0.0036,-0.0127,-0.0247,-0.0271,-0.0313,-0.0335,-0.0283,-0.0274,-0.0323,-0.0318,-0.0356,-0.0356,-0.0355,-0.0354,0,0.0368,0.0386,0.0406,0.0427,0.0435,0.0443,0.0453,0.0447,0.0416,0.0381,0.0361,0.0249,0.0113,-0.0025,-0.0195,-0.0251,-0.0374,-0.0408,-0.0338,-0.0352,-0.0378,-0.0369,-0.0474,-0.0474,-0.0475,-0.0475,-0.0475,0,0.0365,0.0382,0.0425,0.0441,0.0456,0.0477,0.0487,0.0476,0.0471,0.0409,0.0388,0.0259,0.0169,-0.0055,-0.0202,-0.0392,-0.0406,-0.0455,-0.0422,-0.0384,-0.0395,-0.0385,-0.0375,-0.0476,-0.0476,-0.0476,-0.0476,0,0.0355,0.0381,0.0402,0.0449,0.0475,0.05,0.0522,0.0528,0.0504,0.0484,0.0407,0.0285,0.0129,-0.0052,-0.0202,-0.0333,-0.0419,-0.0459,-0.0459,-0.0429,-0.0388,-0.0396,-0.0386,-0.0478,-0.0477,-0.0477,-0.0477,0,0.0345,0.0361,0.0403,0.0437,0.0472,0.0505,0.0523,0.0523,0.0519,0.0469,0.044,0.0276,0.018,-0.0023,-0.0164,-0.0295,-0.0318,-0.0329,-0.0336,-0.0336,-0.0265,-0.0191,-0.0249,0,0,0,0,0,0.0332,0.0353,0.0386,0.0426,0.0465,0.0493,0.0528,0.0544,0.0538,0.0495,0.0475,0.0331,0.0118,0.0016,-0.0114,-0.0182,-0.0351,-0.0336,-0.037,-0.0485,-0.0483,-0.0422,0,0,0,0,0,0,0.032,0.0352,0.0377,0.0408,0.0439,0.0482,0.051,0.0515,0.0497,0.0478,0.0361,0.0319,0.0098,0.0186,-0.0115,-0.0157,-0.0188,-0.0439,-0.044,-0.0486,-0.0485,-0.0483,-0.0419,0,0,0,0,0]}]]